Torna al catalogo

STARLINK-31996

AttivoComunicazioniVLEO
NORAD 60100·PAYLOAD·🇺🇸 United States

Lanciato Jun 23, 2024 da Cape Canaveral Space Force Station

Loading…

Prossimi Passaggi (prossime 24 ore)

TLE

AggiornatoSource: CelesTrak SupGP

Epoca: Sep 14, 2026, 15:11 UTC

1 60100C 24117K   26257.63312500 -.00028857  00000+0 -85290-3 0  2579
2 60100  53.1560 236.8286 0001300  89.5253 220.2514 15.34392928    13

Traccia STARLINK-31996 in tempo reale con AllMySat

Download on the App Store